Flag for U.S.A. Weather past 2 weeks in Urbana, Illinois, U.S.A.

Now
53 °F

Sunny.


Feels Like: 48 °F
Forecast: 30 / 53 °F
Wind: 20 mph from Southeast

Location: University Of Illinois-Willard Airport


UV Index: 5 (Moderate)

Visibility: 10 mi


Pressure: 30.18 "Hg

Humidity: 35%

Dew point: 26 °F

Location of UrbanaLocation

Historic Weather in Urbana

°F

Urbana temperature yesterday

Maximum temperature yesterday: 42 °F (at 4:53 PM)
Minimum temperature yesterday: 29 °F (at 4:53 AM)
Average temperature yesterday: 34 °F

Past Weeks' High & Low Weather Summary

 TemperatureHumidityPressure
High79 °F (Apr 12, 1:53 PM)100% (Apr 3, 2:53 AM)30.33 "Hg (Apr 3, 2:53 AM)
Low29 °F (Apr 15, 4:53 AM)16% (Apr 11, 4:53 PM)29.43 "Hg (Apr 14, 1:53 AM)
Average49 °F70%29.92 "Hg
* Reported Apr 1 3:53 PM — Apr 16 3:53 PM, Urbana, Weather by CustomWeather, © 2014

Note: Actual official high and low records may vary slightly from our data, if they occured in-between our weather recording intervals... More about our weather records

Advertising

Historic Weather Conditions — Data for Previous 24 hours

 ConditionsComfort  
Time TempWeatherWind HumidityBarometerVisibility
3:53 PM
Apr 16
53 °FSunny.20 mph35%30.18 "Hg10 mi
2:53 PM53 °FSunny.21 mph35%30.22 "Hg10 mi
1:53 PM52 °FSunny.22 mph38%30.25 "Hg10 mi
12:53 PM50 °FSunny.17 mph44%30.27 "Hg10 mi
11:53 AM48 °FSunny.23 mph48%30.30 "Hg10 mi
10:53 AM46 °FSunny.18 mph50%30.32 "Hg10 mi
9:53 AM42 °FSunny.20 mph53%30.33 "Hg10 mi
8:53 AM38 °FSunny.16 mph63%30.33 "Hg10 mi
7:53 AM34 °FSunny.13 mph73%30.32 "Hg10 mi
6:53 AM31 °FClear.10 mph79%30.31 "Hg10 mi
5:53 AM30 °FClear.10 mph82%30.29 "Hg10 mi
4:53 AM29 °FClear.8 mph85%30.28 "Hg10 mi
3:53 AM30 °FClear.8 mph82%30.27 "Hg10 mi
2:53 AM30 °FClear.7 mph82%30.27 "Hg10 mi
1:53 AM30 °FClear.7 mph82%30.26 "Hg10 mi
12:53 AM31 °FClear.8 mph79%30.25 "Hg10 mi
11:53 PM
Apr 15
31 °FClear.8 mph79%30.24 "Hg10 mi
10:53 PM30 °FClear.7 mph85%30.23 "Hg10 mi
9:53 PM31 °FClear.8 mph76%30.24 "Hg10 mi
8:53 PM34 °FClear.No wind56%30.22 "Hg10 mi
7:53 PM37 °FSunny.3 mph48%30.20 "Hg10 mi
5:53 PM41 °FPartly sunny.13 mph43%30.19 "Hg10 mi
Weather by CustomWeather, © 2014

See weather overview